Year,Month,Day,Hour,Minute,Value (Times are PST for temperature in C)
2008,04,26,00,00,6.10
2008,04,26,00,01,6.00
2008,04,26,00,02,5.90
2008,04,26,00,03,5.90
2008,04,26,00,04,5.80
2008,04,26,00,05,5.80
2008,04,26,00,06,5.80
2008,04,26,00,07,5.80
2008,04,26,00,08,5.80
2008,04,26,00,09,5.80
2008,04,26,00,10,5.80
2008,04,26,00,11,5.70
2008,04,26,00,12,5.70
2008,04,26,00,13,5.70
2008,04,26,00,14,5.70
2008,04,26,00,15,5.70
2008,04,26,00,16,5.60
2008,04,26,00,17,5.60
2008,04,26,00,18,5.50
2008,04,26,00,19,5.50
2008,04,26,00,20,5.40
2008,04,26,00,21,5.40
2008,04,26,00,22,5.40
2008,04,26,00,23,5.30
2008,04,26,00,24,5.30
2008,04,26,00,25,5.30
2008,04,26,00,26,5.20
2008,04,26,00,27,5.20
2008,04,26,00,28,5.20
2008,04,26,00,29,5.20
2008,04,26,00,30,5.10
2008,04,26,00,31,5.10
2008,04,26,00,32,5.10
2008,04,26,00,33,5.10
2008,04,26,00,34,5.10
2008,04,26,00,35,5.10
2008,04,26,00,36,5.10
2008,04,26,00,37,5.10
2008,04,26,00,38,5.10
2008,04,26,00,39,5.10
2008,04,26,00,40,5.10
2008,04,26,00,41,5.10
2008,04,26,00,42,5.10
2008,04,26,00,43,5.10
2008,04,26,00,44,5.10
2008,04,26,00,45,5.10
2008,04,26,00,46,5.10
2008,04,26,00,47,5.10
2008,04,26,00,48,5.10
2008,04,26,00,49,5.10
2008,04,26,00,50,5.10
2008,04,26,00,51,5.10
2008,04,26,00,52,5.10
2008,04,26,00,53,5.10
2008,04,26,00,54,5.10
2008,04,26,00,55,5.10
2008,04,26,00,56,5.10
2008,04,26,00,57,5.10
2008,04,26,00,58,5.10
2008,04,26,00,59,5.10
2008,04,26,01,00,5.10
2008,04,26,01,01,5.10
2008,04,26,01,02,5.10
2008,04,26,01,03,5.10
2008,04,26,01,04,5.10
2008,04,26,01,05,5.10
2008,04,26,01,06,5.10
2008,04,26,01,07,5.10
2008,04,26,01,08,5.10
2008,04,26,01,09,5.10
2008,04,26,01,10,5.10
2008,04,26,01,11,5.10
2008,04,26,01,12,5.10
2008,04,26,01,13,5.10
2008,04,26,01,14,5.10
2008,04,26,01,15,5.10
2008,04,26,01,16,5.10
2008,04,26,01,17,5.10
2008,04,26,01,18,5.10
2008,04,26,01,19,5.10
2008,04,26,01,20,5.10
2008,04,26,01,21,5.10
2008,04,26,01,22,5.10
2008,04,26,01,23,5.10
2008,04,26,01,24,5.00
2008,04,26,01,25,4.90
2008,04,26,01,26,4.90
2008,04,26,01,27,4.90
2008,04,26,01,28,4.90
2008,04,26,01,29,4.90
2008,04,26,01,30,4.90
2008,04,26,01,31,4.90
2008,04,26,01,32,4.90
2008,04,26,01,33,5.10
2008,04,26,01,34,5.10
2008,04,26,01,35,5.10
2008,04,26,01,36,5.10
2008,04,26,01,37,5.10
2008,04,26,01,38,5.10
2008,04,26,01,39,5.20
2008,04,26,01,40,5.10
2008,04,26,01,41,5.10
2008,04,26,01,42,5.10
2008,04,26,01,43,5.10
2008,04,26,01,44,5.10
2008,04,26,01,45,5.10
2008,04,26,01,46,5.10
2008,04,26,01,47,5.10
2008,04,26,01,48,5.10
2008,04,26,01,49,5.10
2008,04,26,01,50,5.10
2008,04,26,01,51,5.10
2008,04,26,01,52,5.10
2008,04,26,01,53,5.10
2008,04,26,01,54,5.10
2008,04,26,01,55,5.10
2008,04,26,01,56,5.10
2008,04,26,01,57,5.10
2008,04,26,01,58,5.10
2008,04,26,01,59,5.10
2008,04,26,02,00,5.10
2008,04,26,02,01,5.10
2008,04,26,02,02,4.90
2008,04,26,02,03,4.90
2008,04,26,02,04,4.90
2008,04,26,02,05,4.90
2008,04,26,02,06,4.90
2008,04,26,02,07,4.90
2008,04,26,02,08,4.90
2008,04,26,02,09,4.90
2008,04,26,02,10,4.80
2008,04,26,02,11,4.80
2008,04,26,02,12,4.80
2008,04,26,02,13,4.80
2008,04,26,02,14,4.80
2008,04,26,02,15,4.80
2008,04,26,02,16,4.70
2008,04,26,02,17,4.70
2008,04,26,02,18,4.70
2008,04,26,02,19,4.70
2008,04,26,02,20,4.70
2008,04,26,02,21,4.70
2008,04,26,02,22,4.60
2008,04,26,02,23,4.60
2008,04,26,02,24,4.60
2008,04,26,02,25,4.60
2008,04,26,02,26,4.60
2008,04,26,02,27,4.60
2008,04,26,02,28,4.60
2008,04,26,02,29,4.60
2008,04,26,02,30,4.60
2008,04,26,02,31,4.50
2008,04,26,02,32,4.50
2008,04,26,02,33,4.50
2008,04,26,02,34,4.50
2008,04,26,02,35,4.50
2008,04,26,02,36,4.50
2008,04,26,02,37,4.50
2008,04,26,02,38,4.50
2008,04,26,02,39,4.50
2008,04,26,02,40,4.50
2008,04,26,02,41,4.50
2008,04,26,02,42,4.50
2008,04,26,02,43,4.50
2008,04,26,02,44,4.50
2008,04,26,02,45,4.50
2008,04,26,02,46,4.50
2008,04,26,02,47,4.50
2008,04,26,02,48,4.50
2008,04,26,02,49,4.50
2008,04,26,02,50,4.50
2008,04,26,02,51,4.50
2008,04,26,02,52,4.50
2008,04,26,02,53,4.50
2008,04,26,02,54,4.50
2008,04,26,02,55,4.50
2008,04,26,02,56,4.50
2008,04,26,02,57,4.50
2008,04,26,02,58,4.50
2008,04,26,02,59,4.50
2008,04,26,03,00,4.50
2008,04,26,03,01,4.50
2008,04,26,03,02,4.60
2008,04,26,03,03,4.60
2008,04,26,03,04,4.60
2008,04,26,03,05,4.60
2008,04,26,03,06,4.60
2008,04,26,03,07,4.60
2008,04,26,03,08,4.60
2008,04,26,03,09,4.60
2008,04,26,03,10,4.60
2008,04,26,03,11,4.60
2008,04,26,03,12,4.60
2008,04,26,03,13,4.60
2008,04,26,03,14,4.60
2008,04,26,03,15,4.60
2008,04,26,03,16,4.60
2008,04,26,03,17,4.60
2008,04,26,03,18,4.60
2008,04,26,03,19,4.60
2008,04,26,03,20,4.60
2008,04,26,03,21,4.60
2008,04,26,03,22,4.60
2008,04,26,03,23,4.60
2008,04,26,03,24,4.60
2008,04,26,03,25,4.60
2008,04,26,03,26,4.60
2008,04,26,03,27,4.60
2008,04,26,03,28,4.60
2008,04,26,03,29,4.60
2008,04,26,03,30,4.50
2008,04,26,03,31,4.50
2008,04,26,03,32,4.50
2008,04,26,03,33,4.50
2008,04,26,03,34,4.50
2008,04,26,03,35,4.40
2008,04,26,03,36,4.40
2008,04,26,03,37,4.40
2008,04,26,03,38,4.40
2008,04,26,03,39,4.40
2008,04,26,03,40,4.40
2008,04,26,03,41,4.40
2008,04,26,03,42,4.40
2008,04,26,03,43,4.40
2008,04,26,03,44,4.40
2008,04,26,03,45,4.40
2008,04,26,03,46,4.40
2008,04,26,03,47,4.30
2008,04,26,03,48,4.30
2008,04,26,03,49,4.30
2008,04,26,03,50,4.20
2008,04,26,03,51,4.20
2008,04,26,03,52,4.20
2008,04,26,03,53,4.20
2008,04,26,03,54,4.20
2008,04,26,03,55,4.20
2008,04,26,03,56,4.20
2008,04,26,03,57,4.10
2008,04,26,03,58,4.10
2008,04,26,03,59,4.10
2008,04,26,04,00,4.10
2008,04,26,04,01,4.10
2008,04,26,04,02,4.10
2008,04,26,04,03,4.10
2008,04,26,04,04,4.10
2008,04,26,04,05,4.10
2008,04,26,04,06,4.00
2008,04,26,04,07,4.00
2008,04,26,04,08,4.00
2008,04,26,04,09,4.00
2008,04,26,04,10,4.00
2008,04,26,04,11,4.00
2008,04,26,04,12,3.90
2008,04,26,04,13,3.90
2008,04,26,04,14,3.90
2008,04,26,04,15,3.90
2008,04,26,04,16,3.90
2008,04,26,04,17,3.90
2008,04,26,04,18,4.00
2008,04,26,04,19,4.00
2008,04,26,04,20,4.00
2008,04,26,04,21,4.00
2008,04,26,04,22,4.10
2008,04,26,04,23,4.10
2008,04,26,04,24,4.10
2008,04,26,04,25,4.10
2008,04,26,04,26,4.20
2008,04,26,04,27,4.20
2008,04,26,04,28,4.20
2008,04,26,04,29,4.20
2008,04,26,04,30,4.20
2008,04,26,04,31,4.20
2008,04,26,04,32,4.30
2008,04,26,04,33,4.30
2008,04,26,04,34,4.30
2008,04,26,04,35,4.30
2008,04,26,04,36,4.30
2008,04,26,04,37,4.30
2008,04,26,04,38,4.30
2008,04,26,04,39,4.30
2008,04,26,04,40,4.30
2008,04,26,04,41,4.30
2008,04,26,04,42,4.30
2008,04,26,04,43,4.30
2008,04,26,04,44,4.30
2008,04,26,04,45,4.30
2008,04,26,04,46,4.30
2008,04,26,04,47,4.20
2008,04,26,04,48,4.20
2008,04,26,04,49,4.20
2008,04,26,04,50,4.20
2008,04,26,04,51,4.20
2008,04,26,04,52,4.10
2008,04,26,04,53,4.10
2008,04,26,04,54,4.00
2008,04,26,04,55,4.00
2008,04,26,04,56,3.90
2008,04,26,04,57,3.90
2008,04,26,04,58,3.80
2008,04,26,04,59,3.80
2008,04,26,05,00,3.80
2008,04,26,05,01,3.80
2008,04,26,05,02,3.80
2008,04,26,05,03,3.80
2008,04,26,05,04,3.80
2008,04,26,05,05,3.70
2008,04,26,05,06,3.70
2008,04,26,05,07,3.70
2008,04,26,05,08,3.70
2008,04,26,05,09,3.70
2008,04,26,05,10,3.70
2008,04,26,05,11,3.70
2008,04,26,05,12,3.70
2008,04,26,05,13,3.60
2008,04,26,05,14,3.70
2008,04,26,05,15,3.70
2008,04,26,05,16,3.70
2008,04,26,05,17,3.70
2008,04,26,05,18,3.70
2008,04,26,05,19,3.70
2008,04,26,05,20,3.70
2008,04,26,05,21,3.70
2008,04,26,05,22,3.70
2008,04,26,05,23,3.70
2008,04,26,05,24,3.70
2008,04,26,05,25,3.70
2008,04,26,05,26,3.70
2008,04,26,05,27,3.70
2008,04,26,05,28,3.70
2008,04,26,05,29,3.70
2008,04,26,05,30,3.70
2008,04,26,05,31,3.70
2008,04,26,05,32,3.80
2008,04,26,05,33,3.80
2008,04,26,05,34,3.80
2008,04,26,05,35,3.80
2008,04,26,05,36,3.80
2008,04,26,05,37,3.80
2008,04,26,05,38,3.80
2008,04,26,05,39,3.80
2008,04,26,05,40,3.80
2008,04,26,05,41,3.80
2008,04,26,05,42,3.80
2008,04,26,05,43,3.80
2008,04,26,05,44,3.80
2008,04,26,05,45,3.80
2008,04,26,05,46,3.80
2008,04,26,05,47,3.80
2008,04,26,05,48,3.80
2008,04,26,05,49,3.80
2008,04,26,05,50,3.80
2008,04,26,05,51,3.80
2008,04,26,05,52,3.80
2008,04,26,05,53,3.80
2008,04,26,05,54,3.90
2008,04,26,05,55,3.90
2008,04,26,05,56,3.90
2008,04,26,05,57,3.80
2008,04,26,05,58,3.80
2008,04,26,05,59,3.80
2008,04,26,06,00,3.80
2008,04,26,06,01,3.80
2008,04,26,06,02,3.80
2008,04,26,06,03,3.70
2008,04,26,06,04,3.70
2008,04,26,06,05,3.70
2008,04,26,06,06,3.70
2008,04,26,06,07,3.60
2008,04,26,06,08,3.60
2008,04,26,06,09,3.60
2008,04,26,06,10,3.60
2008,04,26,06,11,3.60
2008,04,26,06,12,3.70
2008,04,26,06,13,3.70
2008,04,26,06,14,3.70
2008,04,26,06,15,3.70
2008,04,26,06,16,3.60
2008,04,26,06,17,3.60
2008,04,26,06,18,3.60
2008,04,26,06,19,3.60
2008,04,26,06,20,3.60
2008,04,26,06,21,3.60
2008,04,26,06,22,3.60
2008,04,26,06,23,3.70
2008,04,26,06,24,3.70
2008,04,26,06,25,3.80
2008,04,26,06,26,3.80
2008,04,26,06,27,3.80
2008,04,26,06,28,3.80
2008,04,26,06,29,3.80
2008,04,26,06,30,3.80
2008,04,26,06,31,3.80
2008,04,26,06,32,3.80
2008,04,26,06,33,3.80
2008,04,26,06,34,3.80
2008,04,26,06,35,3.80
2008,04,26,06,36,3.90
2008,04,26,06,37,3.90
2008,04,26,06,38,3.90
2008,04,26,06,39,3.90
2008,04,26,06,40,3.90
2008,04,26,06,41,3.90
2008,04,26,06,42,3.90
2008,04,26,06,43,3.90
2008,04,26,06,44,3.90
2008,04,26,06,45,3.90
2008,04,26,06,46,4.00
2008,04,26,06,47,4.00
2008,04,26,06,48,4.00
2008,04,26,06,49,4.00
2008,04,26,06,50,4.00
2008,04,26,06,51,4.00
2008,04,26,06,52,4.00
2008,04,26,06,53,4.00
2008,04,26,06,54,4.00
2008,04,26,06,55,4.00
2008,04,26,06,56,4.00
2008,04,26,06,57,4.00
2008,04,26,06,58,4.00
2008,04,26,06,59,4.00
2008,04,26,07,00,4.00
2008,04,26,07,01,4.00
2008,04,26,07,02,4.00
2008,04,26,07,03,4.00
2008,04,26,07,04,4.00
2008,04,26,07,05,4.00
2008,04,26,07,06,4.00
2008,04,26,07,07,4.00
2008,04,26,07,08,4.00
2008,04,26,07,09,4.10
2008,04,26,07,10,4.10
2008,04,26,07,11,4.10
2008,04,26,07,12,4.10
2008,04,26,07,13,4.20
2008,04,26,07,14,4.20
2008,04,26,07,15,4.20
2008,04,26,07,16,4.20
2008,04,26,07,17,4.20
2008,04,26,07,18,4.20
2008,04,26,07,19,4.30
2008,04,26,07,20,4.30
2008,04,26,07,21,4.40
2008,04,26,07,22,4.40
2008,04,26,07,23,4.50
2008,04,26,07,24,4.60
2008,04,26,07,25,4.60
2008,04,26,07,26,4.70
2008,04,26,07,27,4.70
2008,04,26,07,28,4.80
2008,04,26,07,29,4.90
2008,04,26,07,30,4.90
2008,04,26,07,31,5.00
2008,04,26,07,32,5.10
2008,04,26,07,33,5.10
2008,04,26,07,34,5.20
2008,04,26,07,35,5.20
2008,04,26,07,36,5.30
2008,04,26,07,37,5.30
2008,04,26,07,38,5.40
2008,04,26,07,39,5.50
2008,04,26,07,40,5.50
2008,04,26,07,41,5.60
2008,04,26,07,42,5.70
2008,04,26,07,43,5.70
2008,04,26,07,44,5.70
2008,04,26,07,45,5.70
2008,04,26,07,46,5.80
2008,04,26,07,47,5.80
2008,04,26,07,48,5.90
2008,04,26,07,49,5.90
2008,04,26,07,50,6.00
2008,04,26,07,51,6.00
2008,04,26,07,52,6.10
2008,04,26,07,53,6.20
2008,04,26,07,54,6.20
2008,04,26,07,55,6.30
2008,04,26,07,56,6.30
2008,04,26,07,57,6.40
2008,04,26,07,58,6.50
2008,04,26,07,59,6.60
2008,04,26,08,00,6.60
2008,04,26,08,01,6.60
2008,04,26,08,02,6.60
2008,04,26,08,03,6.70
2008,04,26,08,04,6.70
2008,04,26,08,05,6.80
2008,04,26,08,06,6.80
2008,04,26,08,07,6.80
2008,04,26,08,08,6.90
2008,04,26,08,09,7.00
2008,04,26,08,10,7.00
2008,04,26,08,11,7.00
2008,04,26,08,12,7.10
2008,04,26,08,13,7.10
2008,04,26,08,14,7.20
2008,04,26,08,15,7.20
2008,04,26,08,16,7.20
2008,04,26,08,17,7.20
2008,04,26,08,18,7.20
2008,04,26,08,19,7.20
2008,04,26,08,20,7.20
2008,04,26,08,21,7.20
2008,04,26,08,22,7.20
2008,04,26,08,23,7.20
2008,04,26,08,24,7.30
2008,04,26,08,25,7.30
2008,04,26,08,26,7.30
2008,04,26,08,27,7.40
2008,04,26,08,28,7.40
2008,04,26,08,29,7.50
2008,04,26,08,30,7.50
2008,04,26,08,31,7.50
2008,04,26,08,32,7.50
2008,04,26,08,33,7.50
2008,04,26,08,34,7.50
2008,04,26,08,35,7.40
2008,04,26,08,36,7.40
2008,04,26,08,37,7.40
2008,04,26,08,38,7.40
2008,04,26,08,39,7.50
2008,04,26,08,40,7.50
2008,04,26,08,41,7.50
2008,04,26,08,42,7.50
2008,04,26,08,43,7.70
2008,04,26,08,44,7.80
2008,04,26,08,45,7.80
2008,04,26,08,46,7.80
2008,04,26,08,47,7.80
2008,04,26,08,48,7.80
2008,04,26,08,49,7.80
2008,04,26,08,50,7.80
2008,04,26,08,51,7.90
2008,04,26,08,52,7.90
2008,04,26,08,53,8.00
2008,04,26,08,54,8.10
2008,04,26,08,55,8.10
2008,04,26,08,56,8.20
2008,04,26,08,57,8.20
2008,04,26,08,58,8.30
2008,04,26,08,59,8.30
2008,04,26,09,00,8.40
2008,04,26,09,01,8.40
2008,04,26,09,02,8.50
2008,04,26,09,03,8.60
2008,04,26,09,04,8.70
2008,04,26,09,05,8.70
2008,04,26,09,06,8.70
2008,04,26,09,07,8.80
2008,04,26,09,08,8.80
2008,04,26,09,09,8.90
2008,04,26,09,10,8.90
2008,04,26,09,11,8.90
2008,04,26,09,12,9.00
2008,04,26,09,13,9.00
2008,04,26,09,14,9.10
2008,04,26,09,15,9.10
2008,04,26,09,16,9.10
2008,04,26,09,17,9.10
2008,04,26,09,18,9.10
2008,04,26,09,19,9.10
2008,04,26,09,20,9.00
2008,04,26,09,21,8.90
2008,04,26,09,22,8.90
2008,04,26,09,23,8.90
2008,04,26,09,24,8.90
2008,04,26,09,25,9.00
2008,04,26,09,26,9.00
2008,04,26,09,27,9.10
2008,04,26,09,28,9.10
2008,04,26,09,29,9.20
2008,04,26,09,30,9.30
2008,04,26,09,31,9.30
2008,04,26,09,32,9.40
2008,04,26,09,33,9.40
2008,04,26,09,34,9.40
2008,04,26,09,35,9.40
2008,04,26,09,36,9.40
2008,04,26,09,37,9.40
2008,04,26,09,38,9.50
2008,04,26,09,39,9.40
2008,04,26,09,40,9.40
2008,04,26,09,41,9.40
2008,04,26,09,42,9.40
2008,04,26,09,43,9.30
2008,04,26,09,44,9.30
2008,04,26,09,45,9.30
2008,04,26,09,46,9.30
2008,04,26,09,47,9.20
2008,04,26,09,48,9.30
2008,04,26,09,49,9.30
2008,04,26,09,50,9.30
2008,04,26,09,51,9.40
2008,04,26,09,52,9.40
2008,04,26,09,53,9.50
2008,04,26,09,54,9.50
2008,04,26,09,55,9.50
2008,04,26,09,56,9.60
2008,04,26,09,57,9.60
2008,04,26,09,58,9.60
2008,04,26,09,59,9.60
2008,04,26,10,00,9.60
2008,04,26,10,01,9.60
2008,04,26,10,02,9.70
2008,04,26,10,03,9.70
2008,04,26,10,04,9.70
2008,04,26,10,05,9.80
2008,04,26,10,06,9.80
2008,04,26,10,07,9.80
2008,04,26,10,08,9.80
2008,04,26,10,09,9.80
2008,04,26,10,10,9.80
2008,04,26,10,11,9.80
2008,04,26,10,12,9.90
2008,04,26,10,13,9.90
2008,04,26,10,14,9.90
2008,04,26,10,15,9.90
2008,04,26,10,16,9.90
2008,04,26,10,17,9.90
2008,04,26,10,18,9.90
2008,04,26,10,19,9.90
2008,04,26,10,20,10.10
2008,04,26,10,21,10.10
2008,04,26,10,22,10.20
2008,04,26,10,23,10.20
2008,04,26,10,24,10.20
2008,04,26,10,25,10.20
2008,04,26,10,26,10.30
2008,04,26,10,27,10.30
2008,04,26,10,28,10.30
2008,04,26,10,29,10.20
2008,04,26,10,30,10.20
2008,04,26,10,31,10.20
2008,04,26,10,32,10.20
2008,04,26,10,33,10.20
2008,04,26,10,34,10.20
2008,04,26,10,35,10.20
2008,04,26,10,36,10.20
2008,04,26,10,37,10.20
2008,04,26,10,38,10.20
2008,04,26,10,39,10.10
2008,04,26,10,40,10.10
2008,04,26,10,41,10.10
2008,04,26,10,42,10.10
2008,04,26,10,43,10.20
2008,04,26,10,44,10.20
2008,04,26,10,45,10.20
2008,04,26,10,46,10.30
2008,04,26,10,47,10.40
2008,04,26,10,48,10.40
2008,04,26,10,49,10.40
2008,04,26,10,50,10.40
2008,04,26,10,51,10.40
2008,04,26,10,52,10.40
2008,04,26,10,53,10.50
2008,04,26,10,54,10.60
2008,04,26,10,55,10.60
2008,04,26,10,56,10.60
2008,04,26,10,57,10.60
2008,04,26,10,58,10.60
2008,04,26,10,59,10.60
2008,04,26,11,00,10.60
2008,04,26,11,01,10.60
2008,04,26,11,02,10.60
2008,04,26,11,03,10.60
2008,04,26,11,04,10.70
2008,04,26,11,05,10.80
2008,04,26,11,06,10.80
2008,04,26,11,07,10.80
2008,04,26,11,08,10.90
2008,04,26,11,09,10.90
2008,04,26,11,10,10.90
2008,04,26,11,11,10.90
2008,04,26,11,12,10.90
2008,04,26,11,13,10.90
2008,04,26,11,14,11.10
2008,04,26,11,15,11.10
2008,04,26,11,16,11.10
2008,04,26,11,17,11.10
2008,04,26,11,18,11.10
2008,04,26,11,19,11.00
2008,04,26,11,20,10.80
2008,04,26,11,21,10.70
2008,04,26,11,22,10.70
2008,04,26,11,23,10.80
2008,04,26,11,24,10.90
2008,04,26,11,25,10.90
2008,04,26,11,26,10.90
2008,04,26,11,27,10.90
2008,04,26,11,28,11.00
2008,04,26,11,29,11.00
2008,04,26,11,30,10.90
2008,04,26,11,31,10.90
2008,04,26,11,32,10.90
2008,04,26,11,33,10.90
2008,04,26,11,34,10.90
2008,04,26,11,35,10.90
2008,04,26,11,36,11.10
2008,04,26,11,37,11.10
2008,04,26,11,38,10.90
2008,04,26,11,39,10.80
2008,04,26,11,40,10.80
2008,04,26,11,41,10.70
2008,04,26,11,42,10.70
2008,04,26,11,43,10.70
2008,04,26,11,44,10.70
2008,04,26,11,45,10.70
2008,04,26,11,46,10.80
2008,04,26,11,47,10.90
2008,04,26,11,48,11.10
2008,04,26,11,49,11.10
2008,04,26,11,50,11.10
2008,04,26,11,51,11.20
2008,04,26,11,52,11.20
2008,04,26,11,53,11.20
2008,04,26,11,54,11.10
2008,04,26,11,55,11.10
2008,04,26,11,56,11.20
2008,04,26,11,57,11.30
2008,04,26,11,58,11.40
2008,04,26,11,59,11.60
2008,04,26,12,00,11.70
2008,04,26,12,01,11.70
2008,04,26,12,02,11.80
2008,04,26,12,03,11.80
2008,04,26,12,04,11.90
2008,04,26,12,05,12.00
2008,04,26,12,06,12.10
2008,04,26,12,07,12.20
2008,04,26,12,08,12.30
2008,04,26,12,09,12.30
2008,04,26,12,10,12.30
2008,04,26,12,11,12.40
2008,04,26,12,12,12.50
2008,04,26,12,13,12.60
2008,04,26,12,14,12.60
2008,04,26,12,15,12.60
2008,04,26,12,16,12.60
2008,04,26,12,17,12.60
2008,04,26,12,18,12.50
2008,04,26,12,19,12.50
2008,04,26,12,20,12.50
2008,04,26,12,21,12.60
2008,04,26,12,22,12.60
2008,04,26,12,23,12.70
2008,04,26,12,24,12.60
2008,04,26,12,25,12.50
2008,04,26,12,26,12.30
2008,04,26,12,27,12.30
2008,04,26,12,28,12.30
2008,04,26,12,29,12.10
2008,04,26,12,30,11.90
2008,04,26,12,31,11.80
2008,04,26,12,32,11.70
2008,04,26,12,33,11.60
2008,04,26,12,34,11.70
2008,04,26,12,35,11.80
2008,04,26,12,36,11.80
2008,04,26,12,37,12.00
2008,04,26,12,38,12.10
2008,04,26,12,39,12.30
2008,04,26,12,40,12.30
2008,04,26,12,41,12.30
2008,04,26,12,42,12.30
2008,04,26,12,43,12.40
2008,04,26,12,44,12.30
2008,04,26,12,45,12.30
2008,04,26,12,46,12.30
2008,04,26,12,47,12.30
2008,04,26,12,48,12.30
2008,04,26,12,49,12.30
2008,04,26,12,50,12.30
2008,04,26,12,51,12.30
2008,04,26,12,52,12.40
2008,04,26,12,53,12.40
2008,04,26,12,54,12.50
2008,04,26,12,55,12.60
2008,04,26,12,56,12.80
2008,04,26,12,57,12.80
2008,04,26,12,58,12.80
2008,04,26,12,59,12.80
2008,04,26,13,00,12.70
2008,04,26,13,01,12.60
2008,04,26,13,02,12.50
2008,04,26,13,03,12.40
2008,04,26,13,04,12.30
2008,04,26,13,05,12.30
2008,04,26,13,06,12.40
2008,04,26,13,07,12.50
2008,04,26,13,08,12.60
2008,04,26,13,09,12.70
2008,04,26,13,10,12.80
2008,04,26,13,11,12.80
2008,04,26,13,12,12.80
2008,04,26,13,13,12.90
2008,04,26,13,14,12.90
2008,04,26,13,15,13.00
2008,04,26,13,16,13.10
2008,04,26,13,17,13.10
2008,04,26,13,18,13.20
2008,04,26,13,19,13.10
2008,04,26,13,20,13.20
2008,04,26,13,21,13.20
2008,04,26,13,22,13.20
2008,04,26,13,23,13.20
2008,04,26,13,24,13.20
2008,04,26,13,25,13.30
2008,04,26,13,26,13.30
2008,04,26,13,27,13.30
2008,04,26,13,28,13.30
2008,04,26,13,29,13.30
2008,04,26,13,30,13.30
2008,04,26,13,31,13.30
2008,04,26,13,32,13.30
2008,04,26,13,33,13.20
2008,04,26,13,34,13.20
2008,04,26,13,35,13.30
2008,04,26,13,36,13.30
2008,04,26,13,37,13.30
2008,04,26,13,38,13.30
2008,04,26,13,39,13.40
2008,04,26,13,40,13.50
2008,04,26,13,41,13.50
2008,04,26,13,42,13.50
2008,04,26,13,43,13.50
2008,04,26,13,44,13.40
2008,04,26,13,45,13.30
2008,04,26,13,46,13.30
2008,04,26,13,47,13.40
2008,04,26,13,48,13.30
2008,04,26,13,49,13.30
2008,04,26,13,50,13.30
2008,04,26,13,51,13.30
2008,04,26,13,52,13.30
2008,04,26,13,53,13.30
2008,04,26,13,54,13.40
2008,04,26,13,55,13.50
2008,04,26,13,56,13.60
2008,04,26,13,57,13.70
2008,04,26,13,58,13.70
2008,04,26,13,59,13.80
2008,04,26,14,00,13.80
2008,04,26,14,01,13.90
2008,04,26,14,02,13.90
2008,04,26,14,03,13.90
2008,04,26,14,04,13.90
2008,04,26,14,05,14.00
2008,04,26,14,06,14.10
2008,04,26,14,07,14.10
2008,04,26,14,08,13.90
2008,04,26,14,09,13.80
2008,04,26,14,10,13.80
2008,04,26,14,11,13.80
2008,04,26,14,12,13.80
2008,04,26,14,13,13.80
2008,04,26,14,14,13.70
2008,04,26,14,15,13.70
2008,04,26,14,16,13.70
2008,04,26,14,17,13.70
2008,04,26,14,18,13.70
2008,04,26,14,19,13.80
2008,04,26,14,20,13.90
2008,04,26,14,21,13.70
2008,04,26,14,22,13.70
2008,04,26,14,23,13.70
2008,04,26,14,24,13.80
2008,04,26,14,25,13.70
2008,04,26,14,26,13.70
2008,04,26,14,27,13.70
2008,04,26,14,28,13.70
2008,04,26,14,29,13.60
2008,04,26,14,30,13.50
2008,04,26,14,31,13.40
2008,04,26,14,32,13.30
2008,04,26,14,33,13.40
2008,04,26,14,34,13.30
2008,04,26,14,35,13.30
2008,04,26,14,36,13.40
2008,04,26,14,37,13.40
2008,04,26,14,38,13.50
2008,04,26,14,39,13.50
2008,04,26,14,40,13.60
2008,04,26,14,41,13.70
2008,04,26,14,42,13.70
2008,04,26,14,43,13.70
2008,04,26,14,44,13.70
2008,04,26,14,45,13.70
2008,04,26,14,46,13.70
2008,04,26,14,47,13.60
2008,04,26,14,48,13.50
2008,04,26,14,49,13.40
2008,04,26,14,50,13.40
2008,04,26,14,51,13.50
2008,04,26,14,52,13.50
2008,04,26,14,53,13.50
2008,04,26,14,54,13.50
2008,04,26,14,55,13.60
2008,04,26,14,56,13.70
2008,04,26,14,57,13.80
2008,04,26,14,58,13.90
2008,04,26,14,59,13.90
2008,04,26,15,00,14.00
2008,04,26,15,01,14.10
2008,04,26,15,02,14.10
2008,04,26,15,03,14.00
2008,04,26,15,04,14.00
2008,04,26,15,05,14.00
2008,04,26,15,06,14.10
2008,04,26,15,07,14.20
2008,04,26,15,08,14.30
2008,04,26,15,09,14.40
2008,04,26,15,10,14.40
2008,04,26,15,11,14.40
2008,04,26,15,12,14.30
2008,04,26,15,13,14.20
2008,04,26,15,14,14.20
2008,04,26,15,15,14.20
2008,04,26,15,16,14.20
2008,04,26,15,17,14.10
2008,04,26,15,18,14.00
2008,04,26,15,19,13.90
2008,04,26,15,20,14.00
2008,04,26,15,21,14.10
2008,04,26,15,22,14.20
2008,04,26,15,23,14.30
2008,04,26,15,24,14.40
2008,04,26,15,25,14.50
2008,04,26,15,26,14.60
2008,04,26,15,27,14.80
2008,04,26,15,28,14.80
2008,04,26,15,29,14.80
2008,04,26,15,30,14.80
2008,04,26,15,31,14.80
2008,04,26,15,32,14.90
2008,04,26,15,33,15.00
2008,04,26,15,34,15.00
2008,04,26,15,35,15.10
2008,04,26,15,36,15.10
2008,04,26,15,37,15.20
2008,04,26,15,38,15.20
2008,04,26,15,39,15.20
2008,04,26,15,40,15.20
2008,04,26,15,41,15.20
2008,04,26,15,42,15.10
2008,04,26,15,43,15.00
2008,04,26,15,44,15.00
2008,04,26,15,45,14.90
2008,04,26,15,46,14.90
2008,04,26,15,47,14.80
2008,04,26,15,48,14.70
2008,04,26,15,49,14.60
2008,04,26,15,50,14.60
2008,04,26,15,51,14.70
2008,04,26,15,52,14.80
2008,04,26,15,53,14.80
2008,04,26,15,54,14.90
2008,04,26,15,55,15.00
2008,04,26,15,56,15.10
2008,04,26,15,57,15.00
2008,04,26,15,58,15.00
2008,04,26,15,59,15.00
2008,04,26,16,00,14.90
2008,04,26,16,01,14.90
2008,04,26,16,02,14.90
2008,04,26,16,03,14.90
2008,04,26,16,04,15.00
2008,04,26,16,05,15.10
2008,04,26,16,06,15.20
2008,04,26,16,07,15.20
2008,04,26,16,08,15.30
2008,04,26,16,09,15.30
2008,04,26,16,10,15.30
2008,04,26,16,11,15.20
2008,04,26,16,12,15.20
2008,04,26,16,13,15.30
2008,04,26,16,14,15.30
2008,04,26,16,15,15.30
2008,04,26,16,16,15.30
2008,04,26,16,17,15.20
2008,04,26,16,18,15.00
2008,04,26,16,19,15.00
2008,04,26,16,20,14.90
2008,04,26,16,21,14.80
2008,04,26,16,22,14.80
2008,04,26,16,23,14.80
2008,04,26,16,24,14.80
2008,04,26,16,25,14.90
2008,04,26,16,26,15.00
2008,04,26,16,27,15.10
2008,04,26,16,28,15.10
2008,04,26,16,29,15.20
2008,04,26,16,30,15.20
2008,04,26,16,31,15.30
2008,04,26,16,32,15.30
2008,04,26,16,33,15.30
2008,04,26,16,34,15.30
2008,04,26,16,35,15.30
2008,04,26,16,36,15.30
2008,04,26,16,37,15.30
2008,04,26,16,38,15.30
2008,04,26,16,39,15.30
2008,04,26,16,40,15.30
2008,04,26,16,41,15.20
2008,04,26,16,42,15.00
2008,04,26,16,43,14.90
2008,04,26,16,44,14.80
2008,04,26,16,45,14.80
2008,04,26,16,46,14.70
2008,04,26,16,47,14.70
2008,04,26,16,48,14.60
2008,04,26,16,49,14.60
2008,04,26,16,50,14.60
2008,04,26,16,51,14.60
2008,04,26,16,52,14.70
2008,04,26,16,53,14.70
2008,04,26,16,54,14.70
2008,04,26,16,55,14.80
2008,04,26,16,56,14.80
2008,04,26,16,57,14.80
2008,04,26,16,58,14.90
2008,04,26,16,59,15.00
2008,04,26,17,00,15.00
2008,04,26,17,01,15.00
2008,04,26,17,02,15.00
2008,04,26,17,03,14.90
2008,04,26,17,04,15.00
2008,04,26,17,05,15.00
2008,04,26,17,06,15.00
2008,04,26,17,07,15.00
2008,04,26,17,08,15.00
2008,04,26,17,09,15.00
2008,04,26,17,10,15.00
2008,04,26,17,11,15.10
2008,04,26,17,12,15.10
2008,04,26,17,13,15.10
2008,04,26,17,14,15.10
2008,04,26,17,15,15.20
2008,04,26,17,16,15.20
2008,04,26,17,17,15.20
2008,04,26,17,18,15.30
2008,04,26,17,19,15.30
2008,04,26,17,20,15.30
2008,04,26,17,21,15.20
2008,04,26,17,22,15.20
2008,04,26,17,23,15.20
2008,04,26,17,24,15.20
2008,04,26,17,25,15.10
2008,04,26,17,26,15.00
2008,04,26,17,27,15.00
2008,04,26,17,28,14.90
2008,04,26,17,29,14.90
2008,04,26,17,30,14.90
2008,04,26,17,31,14.90
2008,04,26,17,32,14.80
2008,04,26,17,33,14.80
2008,04,26,17,34,14.80
2008,04,26,17,35,14.70
2008,04,26,17,36,14.60
2008,04,26,17,37,14.50
2008,04,26,17,38,14.40
2008,04,26,17,39,14.20
2008,04,26,17,40,14.20
2008,04,26,17,41,14.00
2008,04,26,17,42,13.90
2008,04,26,17,43,13.90
2008,04,26,17,44,13.80
2008,04,26,17,45,13.80
2008,04,26,17,46,13.80